Regional Weather Roundup
Issued by NWS Upton, NY

Current Version | Previous Version | Text Only | Print | Product List | Glossary On
Versions: 1 2 3 4 5 6 7 8 9 10 11 12 13 14 15 16 17 18 19 20 21 22 23 24 25 26 27
000 ASUS41 KOKX 241408 RWROKX REGIONAL WEATHER ROUNDUP NATIONAL WEATHER SERVICE NEW YORK NY 900 AM EST TUE JAN 24 2017 NOTE: "FAIR" INDICATES FEW OR NO CLOUDS BELOW 12,000 FEET WITH NO SIGNIFICANT WEATHER AND/OR OBSTRUCTIONS TO VISIBILITY. NYZ071-072-176-178-NJZ106-104-241500- NEW YORK CITY METRO AREA CITY SKY/WX TMP DP RH WIND PRES REMARKS Central Park CLOUDY 35 35 100 N15G28 29.38R FOG WCI 25 Wall St Helipt CLOUDY 39 36 87 NE12G20 29.36R WCI 32 LaGuardia APRT LGT RAIN 39 35 86 N16 29.35R FOG WCI 30 Kennedy INTL LGT RAIN 39 36 89 N21 29.33S FOG WCI 29 Breezy Point N/A 36 N/A N/A N15G22 N/A WCI 26 Newark/Liberty DRIZZLE 37 35 92 N20G28 29.37R FOG WCI 27 Teterboro LGT RAIN 36 34 93 NE21 29.38F WCI 24 $$ NYZ177-179-078>081-241500- LONG ISLAND NEW YORK CITY SKY/WX TMP DP RH WIND PRES REMARKS Jones Beach N/A 37 N/A N/A N26G32 N/A WCI 26 Matinecock PT NOT AVBL Farmingdale CLOUDY 38 36 92 NE22G32 29.30S FOG WCI 27 MacArthur/ISP LGT RAIN 40 39 97 N21G28 29.29F FOG WCI 30 Shirley LGT RAIN 40 40 100 N14G26 29.29F FOG WCI 32 Westhampton LGT RAIN 41 39 93 N22 29.28F FOG Southampton NOT AVBL Bridgehampton NOT AVBL East Hampton CLOUDY 42 38 86 N16G26 29.28F Montauk NOT AVBL $$ NYZ052-065-067-241500- HUDSON VALLEY CITY SKY/WX TMP DP RH WIND PRES REMARKS White Plains LGT RAIN 36 33 89 N14G22 29.35R FOG WCI 27 Newburgh DRIZZLE 34 32 93 NE12G23 29.44S FOG WCI 25 Montgomery LGT RAIN 34 32 92 NE15G29 29.43R FOG WCI 24 Poughkeepsie CLOUDY 33 31 92 N10G18 29.44S FOG WCI 25 Albany LGT SNOW 33 30 88 N9 29.55S FOG WCI 25 $$ NJZ001-105-106-008-010-013-015-019>022-104-241500- NEW JERSEY CITY SKY/WX TMP DP RH WIND PRES REMARKS Newark/Liberty DRIZZLE 37 35 92 N20G28 29.37R FOG WCI 27 Teterboro LGT RAIN 36 34 93 NE21 29.38F WCI 24 Caldwell CLOUDY 35 33 92 N9G17 29.39S FOG WCI 28 Somerville CLOUDY 37 32 82 N10G16 29.38R WCI 30 Linden CLOUDY 37 34 90 N13G22 29.38R FOG WCI 28 Sussex CLOUDY 35 33 92 N9 29.43R FOG WCI 28 Andover N/A 34 32 92 N8G18 29.42R WCI 27 Trenton MIX PCPN 36 34 92 N13G18 29.39R FOG WCI 27 Millville LGT RAIN 37 37 100 NW16G24 29.39R FOG WCI 28 Atlantic City MIX PCPN 37 34 89 NW18G29 29.33S FOG WCI 27 Wrightstown LGT RAIN 36 35 95 NW17G23 29.34R FOG WCI 26 Toms River LGT RAIN 36 36 100 N14G21 29.33R FOG WCI 27 Belmar LGT RAIN 36 35 96 N15 29.33S FOG WCI 27 $$ PAZ047>061-062-071-241500- EASTERN PENNSYLVANIA CITY SKY/WX TMP DP RH WIND PRES REMARKS Philadelphia CLOUDY 38 34 85 N16G25 29.42R WCI 29 Allentown CLOUDY 39 32 76 NW9 29.45R WCI 33 Scranton CLOUDY 34 32 92 N13 29.48S FOG WCI 25 $$ CTZ002-004>006-009-010-012-RIZ004-006-007-MAZ004-011-015-241500- SOUTHERN NEW ENGLAND IN CT CITY SKY/WX TMP DP RH WIND PRES REMARKS Bradley INTL CLOUDY 35 29 78 N20G31 29.47R WCI 24 Hartford CLOUDY 36 31 82 N15G24 29.43S HAZE WCI 27 Danbury CLOUDY 35 30 82 NE15G28 29.39S WCI 25 Wtrbury/Oxford CLOUDY 34 28 80 NE23G41 29.33S FOG WCI 22 Bridgeport CLOUDY 40 33 76 NE22G31 29.35R WCI 30 Meriden MIX PCPN 36 31 82 N16G24 29.39S WCI 26 New Haven CLOUDY 38 35 89 N23G31 29.32S WCI 27 Chester CLOUDY 39 37 93 NE15G30 29.34F FOG WCI 31 Groton CLOUDY 44 38 79 N24G37 29.29F Wilimantic CLOUDY 40 36 86 NE23G32 29.40R WCI 30 IN RI CITY SKY/WX TMP DP RH WIND PRES REMARKS Providence LGT RAIN 42 39 89 NE24G33 29.39S FOG Block Island NOT AVBL Westerly CLOUDY 44 38 79 N22G36 29.31F IN MA CITY SKY/WX TMP DP RH WIND PRES REMARKS Boston LGT RAIN 41 40 96 NE28G41 29.49F FOG Worcester FRZ RAIN 29 27 92 NE16G32 29.44S FOG WCI 17 Westfield CLOUDY 35 28 75 N17G24 29.48F WCI 25 Provincetown LGT RAIN 46 45 96 NE17 29.38S FOG Nantucket FOG 52 51 97 E15 29.27R VSB 3/4 $$ ANZ330-335-338-340-345-350-353-355-241500- COASTAL MARINE OBSERVATIONS STATION/POSITION TIME SKY/WX TEMP WIND PRES VSBY WAVE AIR SEA DIR/SP/G HT/PER (UTC) (F) (DEG/KT/KT) (MB) (MI) (FT/S) NY HARB ENTRANCE 1250 40 43 10/ 23/ 27 991.0 12/11 20 S FIRE ISLAND 1250 43 46 40/ 29/ 35 988.7 14/10 GREAT SOUTH BAY NOT AVBL 23 SSW MONTAUK P 1250 44 47 30/ 31/ 39 989.6 14/11 15 E BARNEGAT LI 1330 45 N/A 14/12 HUDSON CANYON 1250 51 51 986.4 15/11 KINGS POINT 1336 39 N/A EXECUTION ROCKS 1345 37 10/ 16/ 21 N/A CENTRAL LI SOUND 1253 42 50/ 23/ 31 N/A 5/ 5 EASTERN LI SOUND NOT AVBL ROBBINS REEF 1336 36 360/ 18/ 24 994.0 $$ >>>>>>>>>>>>>>>>>>>>>>>>>>>> KEY <<<<<<<<<<<<<<<<<<<<<<<<<<< > < > SKY/WX - Sky Condition/Present Weather < > TMP - Temperature in Fahrenheit < > DP - Dew Point in Fahrenheit < > RH - Relative Humidity in Percent < > WIND - Direction (from) and Speed in MPH < > PRES - Mean Sea Level Pressure (inches of Hg) < > WCI - Wind Chill Index < > VSB - VISIBILITY IN MILES < > HX - HEAT INDEX < > TC - TEMPERATURE IN CELSIUS < > VRB - VARIABLE WIND DIRECTION < > < >>>>>>>>>>>>>>>>>>>>>>>>>>>> KEY <<<<<<<<<<<<<<<<<<<<<<<<<<<

USA.gov is the U.S. government's official web portal to all federal, state and local government web resources and services.